Regional Weather Roundup
Issued by NWS

Home | Current Version | Previous Version | Text Only | Print | Product List | Glossary Off
Versions: 1 2 3 4 5 6 7 8 9 10 11 12 13 14 15 16 17 18 19 20 21 22 23 24 25 26 27

000
ASUS45 KCYS 220810
RWRWY

WYOMING REGIONAL WEATHER ROUNDUP
NATIONAL WEATHER SERVICE CHEYENNE WY
200 AM MDT MON MAY 22 2017

NOTE:  "FAIR" INDICATES FEW OR NO CLOUDS BELOW 12,000 FEET
WITH NO SIGNIFICANT WEATHER AND/OR OBSTRUCTIONS TO VISIBILITY.

WYZ001-220900-
YELLOWSTONE NATIONAL PARK

CITY           SKY/WX    TMP DP  RH WIND       PRES   REMARKS
LK YELLOWSTONE   N/A     28  25  88 CALM      30.36R
W YELLOWSTONE  NOT AVBL

$$
WYZ002>013-054>058-071-098>099-220900-
NORTHERN WYOMING

CITY           SKY/WX    TMP DP  RH WIND       PRES   REMARKS
JACKSON        FAIR      34  28  80 CALM      30.31S
CODY           MOCLDY    49  35  58 SW8       30.21F
GREYBULL       FAIR      49  32  52 VRB3      30.16F
WORLAND        FAIR      42  37  82 S5        30.17F
SHERIDAN       FAIR      54  35  48 W13       30.11F
BUFFALO        CLOUDY    50  35  56 W14       30.15F
GILLETTE       FAIR      47  38  71 SW17      30.10F
HULETT         FAIR      43  37  81 S7        30.10F
NEWCASTLE      FAIR      37  36  93 NE3       30.14F

$$
WYZ014>020-022>026-101>103-220900-
CENTRAL WYOMING

CITY           SKY/WX    TMP DP  RH WIND       PRES   REMARKS
BIG PINEY      FAIR      28  27  96 NE5       30.33F WCI  23
PINEDALE       FAIR      32  32 100 W3        30.35S
DUBOIS         FAIR      34  30  86 W7        30.30F WCI  28
LANDER         FAIR      43  34  70 CALM      30.23F
RIVERTON       FAIR      43  38  82 SW8       30.24F
CASPER         FAIR      39  36  89 W9        30.22F WCI  33
DOUGLAS        FAIR      37  34  89 N5        30.20F WCI  33

$$
WYZ021-027>030-104>119-220900-
SOUTHERN WYOMING

CITY           SKY/WX    TMP DP  RH WIND       PRES   REMARKS
EVANSTON       FAIR      40  38  93 SW6       30.33S
KEMMERER         N/A     37  36  93 CALM      30.34F
ROCK SPRINGS   FAIR      41  36  82 N3        30.31S
DIXON            N/A     35  32  92 NE6       30.32S WCI  29
RAWLINS        FAIR      33  30  88 CALM      30.28F
SARATOGA       FAIR      32  32 100 S6        30.30F WCI  26
LARAMIE        FAIR      33  31  92 W7        30.26F WCI  27
CHEYENNE       FAIR      39  34  82 NW9       30.23F WCI  33
TORRINGTON     FAIR      40  39  97 W6        30.16F
PINE BLUFFS    FAIR      36  34  93 W7        30.22F WCI  30

$$




USA.gov is the U.S. government's official web portal to all federal, state and local government web resources and services.